Location: Observatoire POLARIS
(46.3550°N, 73.3861°W)
Time: 17:11:25
(UTC-04:00)

Envisat - Visible Passes

Search period start: 22 June 2018 00:00
Search period end: 02 July 2018 00:00
Orbit: 764 x 766 km, 98.2° (Epoch: 22 June)

Date Brightness Start Highest point End Pass type
(mag) Time Alt. Az. Time Alt. Az. Time Alt. Az.
22 Jun 6.1 21:52:34 10° W 21:53:02 10° W 21:53:30 10° W visible
25 Jun 5.8 21:39:22 10° WSW 21:41:42 13° W 21:44:04 10° WNW visible
28 Jun 5.6 21:27:14 10° SW 21:30:24 16° W 21:33:36 10° NW visible
